Voltar ao catálogo

OPS 4682 DEB

AtivoPO
NORAD 19576·DEBRIS·🇺🇸 United States

Lançado Apr 3, 1965 de Vandenberg Space Force Base

Loading…

Próximas Passagens (próximas 24 horas)

TLE

EnvelhecendoSource: Space-Track

Época: Sep 9, 2026, 13:42 UTC

1 19576U 65027AV  26252.57122552  .00000250  00000-0  79818-3 0  9997
2 19576  90.2471  10.9685 0026401 356.3340  17.4450 13.00762965809321

Acompanhe OPS 4682 DEB em tempo real com AllMySat

Download on the App Store